Weather History for Wrangell, AK

Change the Weather History Date:

Tuesday, September 4, 2012

  Actual Average Record
Temperature  
Mean Temperature 56 °F -  
Max Temperature 60 °F 59 °F 73 °F (1957)
Min Temperature 51 °F 47 °F 37 °F (1965)
Degree Days  
Heating Degree Days 10    
Growing Degree Days 6 (Base 50)    
Moisture  
Dew Point 50 °F    
Average Humidity 87    
Maximum Humidity 94    
Minimum Humidity 68    
Precipitation  
Precipitation 0.00 in - - ()
Sea Level Pressure  
Sea Level Pressure 30.24 in    
Wind  
Wind Speed 6 mph (West)    
Max Wind Speed 14 mph    
Max Gust Speed 17 mph    
Visibility 8 miles    
Events Rain    
Averages and records for this station are not official NWS values.
T = Trace of Precipitation, MM = Missing Value Source: NWS Daily Summary

Daily Weather History Graph

Daily Weather History Graph

Search for Another Location

Airport:

Trip Planner

Search our weather history database for the weather conditions in past years. The results will help you decide how hot, cold, wet, or windy it might be!

Date:

Astronomy

Sep. 04, 2012 Rise Set
Actual Time 6:00 AM AKDT 7:35 PM AKDT
Civil Twilight 5:20 AM AKDT 8:14 PM AKDT
Nautical Twilight 4:31 AM AKDT 9:03 PM AKDT
Astronomical Twilight 3:34 AM AKDT 9:58 PM AKDT
Moon 8:26 PM AKDT (9/4) 11:16 AM AKDT (9/4)
Length of Visible Light 14h 53m
Length of Day
13h 35m
Waning Gibbous, 82% of the Moon is Illuminated
Sep 4
Waning Gibbous
Sep 8
Last Quarter
Sep 15
New
Sep 22
First Quarter
Sep 29
Full

Hourly Weather History & Observations

Time (AKDT) Temp. Dew Point Humidity Pressure Visibility Wind Dir Wind Speed Gust Speed Precip Events Conditions
12:16 AM 55.4 °F 51.8 °F 88% 30.20 in 6.0 mi SE 10.4 mph - N/A   Overcast
12:36 AM 55.4 °F 50.0 °F 82% 30.19 in 7.0 mi ESE 11.5 mph 17.3 mph N/A   Overcast
12:56 AM 53.6 °F 50.0 °F 88% 30.19 in 8.0 mi East 13.8 mph - N/A   Overcast
1:16 AM 53.6 °F 50.0 °F 88% 30.20 in 5.0 mi SSW 3.5 mph - N/A   Overcast
1:36 AM 53.6 °F 51.8 °F 94% 30.21 in 6.0 mi Calm Calm - N/A   Overcast
1:56 AM 53.6 °F 51.8 °F 94% 30.19 in 5.0 mi East 6.9 mph - N/A   Overcast
2:16 AM 53.6 °F 51.8 °F 94% 30.19 in 8.0 mi East 12.7 mph - N/A   Overcast
2:36 AM 53.6 °F 50.0 °F 88% 30.19 in 10.0 mi North 3.5 mph - N/A   Overcast
2:56 AM 53.6 °F 51.8 °F 94% 30.18 in 9.0 mi SE 9.2 mph 17.3 mph N/A   Mostly Cloudy
3:16 AM 53.6 °F 50.0 °F 88% 30.19 in 10.0 mi WNW 4.6 mph - N/A   Overcast
3:36 AM 53.6 °F 50.0 °F 88% 30.19 in 7.0 mi WSW 3.5 mph - N/A   Overcast
3:56 AM 53.6 °F 51.8 °F 94% 30.18 in 6.0 mi Calm Calm - N/A   Overcast
4:16 AM 53.6 °F 51.8 °F 94% 30.19 in 5.0 mi East 9.2 mph - N/A   Mostly Cloudy
4:36 AM 53.6 °F 51.8 °F 94% 30.20 in 8.0 mi WNW 3.5 mph - N/A   Overcast
4:56 AM 53.6 °F 51.8 °F 94% 30.19 in 8.0 mi Calm Calm - N/A   Overcast
5:16 AM 53.6 °F 51.8 °F 94% 30.19 in 5.0 mi SE 6.9 mph - N/A   Overcast
5:36 AM 53.6 °F 50.0 °F 88% 30.19 in 3.0 mi Calm Calm - N/A   Mostly Cloudy
5:56 AM 53.6 °F 51.8 °F 94% 30.19 in 3.0 mi East 11.5 mph - N/A   Overcast
6:16 AM 53.6 °F 51.8 °F 94% 30.19 in 3.0 mi ESE 5.8 mph - N/A   Overcast
6:36 AM 53.6 °F 50.0 °F 88% 30.20 in 3.0 mi West 4.6 mph - N/A   Overcast
6:56 AM 53.6 °F 50.0 °F 88% 30.19 in 3.0 mi NW 6.9 mph - N/A   Overcast
7:16 AM 53.6 °F 51.8 °F 94% 30.20 in 3.0 mi WSW 8.1 mph - N/A   Overcast
7:36 AM 53.6 °F 51.8 °F 94% 30.20 in 3.0 mi WSW 8.1 mph - N/A   Overcast
7:56 AM 53.6 °F 50.0 °F 88% 30.21 in 3.0 mi SW 6.9 mph - N/A   Overcast
8:16 AM 53.6 °F 51.8 °F 94% 30.21 in 3.0 mi Calm Calm - N/A   Overcast
8:20 AM 53.6 °F 51.8 °F 94% 30.20 in 10.0 mi East 3.5 mph - N/A Rain Light Rain
8:36 AM 53.6 °F 51.8 °F 94% 30.20 in 10.0 mi SSE 4.6 mph - N/A   Overcast
8:56 AM 53.6 °F 51.8 °F 94% 30.20 in 10.0 mi SSE 3.5 mph - N/A   Overcast
9:16 AM 53.6 °F 51.8 °F 94% 30.21 in 10.0 mi ENE 5.8 mph - N/A   Overcast
9:36 AM 53.6 °F 51.8 °F 94% 30.21 in 10.0 mi SE 5.8 mph - N/A   Overcast
9:56 AM 55.4 °F 51.8 °F 88% 30.21 in 10.0 mi ESE 4.6 mph - N/A   Overcast
10:16 AM 55.4 °F 51.8 °F 88% 30.22 in 10.0 mi Calm Calm - N/A   Overcast
10:36 AM 55.4 °F 51.8 °F 88% 30.23 in 10.0 mi ESE 3.5 mph - N/A   Overcast
10:56 AM 55.4 °F 51.8 °F 88% 30.23 in 10.0 mi Calm Calm - N/A   Overcast
11:16 AM 55.4 °F 51.8 °F 88% 30.24 in 10.0 mi North 3.5 mph - N/A   Overcast
11:36 AM 55.4 °F 51.8 °F 88% 30.25 in 10.0 mi WNW 6.9 mph - N/A   Overcast
11:56 AM 55.4 °F 51.8 °F 88% 30.26 in 10.0 mi SW 6.9 mph - N/A   Overcast
12:16 PM 55.4 °F 51.8 °F 88% 30.26 in 10.0 mi SSW 4.6 mph - N/A   Overcast
12:36 PM 55.4 °F 51.8 °F 88% 30.26 in 10.0 mi SW 4.6 mph - N/A   Overcast
12:56 PM 55.4 °F 51.8 °F 88% 30.26 in 10.0 mi Calm Calm - N/A   Overcast
1:16 PM 55.4 °F 51.8 °F 88% 30.27 in 10.0 mi Calm Calm - N/A   Overcast
1:36 PM 55.4 °F 51.8 °F 88% 30.26 in 10.0 mi NNE 4.6 mph - N/A   Overcast
1:56 PM 55.4 °F 51.8 °F 88% 30.26 in 10.0 mi NNW 3.5 mph - N/A   Mostly Cloudy
2:16 PM 55.4 °F 51.8 °F 88% 30.27 in 10.0 mi North 3.5 mph - N/A   Mostly Cloudy
2:36 PM 55.4 °F 51.8 °F 88% 30.27 in 10.0 mi NNW 4.6 mph - N/A   Mostly Cloudy
2:56 PM 55.4 °F 51.8 °F 88% 30.27 in 10.0 mi NW 3.5 mph - N/A   Mostly Cloudy
3:16 PM 57.2 °F 51.8 °F 82% 30.28 in 10.0 mi NNW 4.6 mph - N/A   Mostly Cloudy
3:36 PM 57.2 °F 51.8 °F 82% 30.27 in 10.0 mi WNW 3.5 mph - N/A   Mostly Cloudy
3:56 PM 57.2 °F 50.0 °F 77% 30.27 in 10.0 mi WSW 5.8 mph - N/A   Mostly Cloudy
4:16 PM 60.8 °F 50.0 °F 68% 30.28 in 10.0 mi Calm Calm - N/A   Mostly Cloudy
4:36 PM 59.0 °F 51.8 °F 77% 30.28 in 10.0 mi NNW 5.8 mph - N/A   Mostly Cloudy
4:56 PM 57.2 °F 50.0 °F 77% 30.28 in 10.0 mi North 6.9 mph - N/A   Mostly Cloudy
5:16 PM 55.4 °F 48.2 °F 77% 30.28 in 10.0 mi NNW 3.5 mph - N/A   Mostly Cloudy
5:36 PM 55.4 °F 50.0 °F 82% 30.28 in 10.0 mi NW 3.5 mph - N/A   Mostly Cloudy
5:56 PM 57.2 °F 50.0 °F 77% 30.28 in 10.0 mi Calm Calm - N/A   Mostly Cloudy
6:16 PM 55.4 °F 50.0 °F 82% 30.28 in 10.0 mi Calm Calm - N/A   Mostly Cloudy
6:36 PM 57.2 °F 48.2 °F 72% 30.28 in 10.0 mi West 6.9 mph - N/A   Mostly Cloudy
6:56 PM 55.4 °F 48.2 °F 77% 30.28 in 10.0 mi West 4.6 mph - N/A   Mostly Cloudy
7:16 PM 53.6 °F 46.4 °F 77% 30.28 in 10.0 mi NW 6.9 mph - N/A   Mostly Cloudy
7:36 PM 53.6 °F 46.4 °F 77% 30.28 in 10.0 mi SW 3.5 mph - N/A   Mostly Cloudy
7:56 PM 53.6 °F 46.4 °F 77% 30.29 in 10.0 mi South 3.5 mph - N/A   Mostly Cloudy
8:16 PM 53.6 °F 48.2 °F 82% 30.29 in 10.0 mi Calm Calm - N/A   Mostly Cloudy
8:36 PM 53.6 °F 48.2 °F 82% 30.29 in 10.0 mi Calm Calm - N/A   Mostly Cloudy
8:56 PM 53.6 °F 46.4 °F 77% 30.29 in 10.0 mi WSW 3.5 mph - N/A   Mostly Cloudy
9:16 PM 53.6 °F 48.2 °F 82% 30.29 in 10.0 mi Calm Calm - N/A   Mostly Cloudy
9:36 PM 53.6 °F 48.2 °F 82% 30.29 in 10.0 mi Calm Calm - N/A   Mostly Cloudy
9:56 PM 53.6 °F 46.4 °F 77% 30.29 in 10.0 mi ESE 4.6 mph - N/A   Overcast
10:16 PM 53.6 °F 48.2 °F 82% 30.30 in 10.0 mi Calm Calm - N/A   Overcast
10:36 PM 53.6 °F 48.2 °F 82% 30.30 in 10.0 mi Calm Calm - N/A   Overcast
10:56 PM 51.8 °F 48.2 °F 88% 30.30 in 10.0 mi Calm Calm - N/A   Overcast
11:16 PM 51.8 °F 48.2 °F 88% 30.30 in 10.0 mi Calm Calm - N/A   Overcast
11:36 PM 51.8 °F 48.2 °F 88% 30.30 in 10.0 mi Calm Calm - N/A   Overcast
11:56 PM 51.8 °F 48.2 °F 88% 30.31 in 10.0 mi Calm Calm - N/A   Overcast